Regional Weather Roundup
Issued by NWS Spokane, WA

Home | Current Version | Previous Version | Text Only | Print | Product List | Glossary On
Versions: 1 2 3 4 5 6 7 8 9 10 11 12 13 14 15 16 17 18 19 20 21 22 23 24 25 26 27 28 29 30 31 32 33 34 35 36 37 38 39 40 41 42 43 44 45 46 47 48 49 50
623
NZUS01 KOTX 110410
RWROTX

Eastern Washington/Northern Idaho Roundup
National Weather Service, Spokane WA
800 PM PST SUN DEC 10 2017

Note: "fair" indicated few or no clouds below 12,000 feet with no
significant weather and/or obstructions to visibility.

...Northeast Washington and Northern Idaho Panhandle...

CITY           SKY/WX    TMP DP  RH WIND       PRES   REMARKS
Spokane Intl   CLOUDY    26  24  92 NE6       30.59S WCI  19
Spokane Downto CLOUDY    30  24  78 CALM      30.62S
Coeur d Alene  CLOUDY    28  24  85 NE6       30.60S WCI  22
Deer Park      CLOUDY    24  22  91 N7        30.61S WCI  16
Sandpoint      PTCLDY    21  21 100 W3        30.62S
Bonners Ferry  MOCLDY    23  19  86 CALM      30.63S

...Southeast Washington and southern Idaho Panhandle...

CITY           SKY/WX    TMP DP  RH WIND       PRES   REMARKS
Walla Walla    CLOUDY    29  24  82 E6        30.65S WCI  23
Pullman/Moscow CLOUDY    27  24  89 N3        30.58S
Lewiston       CLEAR     26  23  88 SE3       30.62F
Lowell           N/A     25  24  96 CALM      30.65S
Grangeville    FAIR      21  19  93 CALM      30.53F

...Columbia Basin...

CITY           SKY/WX    TMP DP  RH WIND       PRES   REMARKS
Ephrata        CLOUDY    30  24  78 CALM      30.65S
Moses Lake     CLOUDY    30  27  88 NW3       30.66S
Pasco          CLOUDY    31  27  85 N3        30.71S
Richland       CLOUDY    32  28  86 NW3       30.71S
Hermiston      CLOUDY    31  26  82 CALM      30.68S
Pendleton      CLOUDY    27  24  89 NW6       30.62S WCI  20

...East Slopes Cascades...

CITY           SKY/WX    TMP DP  RH WIND       PRES   REMARKS
The Dalles     CLOUDY    34  26  72 SE8       30.70S WCI  27
Yakima         CLOUDY    33  25  72 CALM      30.67S
Ellensburg       N/A    N/A N/A N/A MISG      30.63R
Stampede Pass  FOG       19  17  92 N10G22    30.40S VSB 1/2 WCI   7
Wenatchee      CLOUDY    30  23  75 CALM      30.66R
Omak           CLOUDY    30  28  92 CALM      30.67R
Sunnyside      CLOUDY    29  25  82 CALM      30.69S

...Southern British Columbia...

CITY           SKY/WX    TMP DP  RH WIND       PRES   REMARKS
Penticton      CLOUDY    32  25  74 S9        30.65S WCI  24
Cranbrook      CLOUDY    21  18  86 CALM      30.64R
Osoyoos          N/A     32  25  74 CALM        N/A
Creston          N/A     25  19  80 NE2         N/A

...Western Montana...

CITY           SKY/WX    TMP DP  RH WIND       PRES   REMARKS
Kalispell      CLOUDY    25  23  92 CALM      30.62S
Libby            N/A     21  19  93 CALM      30.62R
Missoula       MOCLDY    17  15  92 SE6       30.62R WCI   9

...Neighboring Cities...

CITY           SKY/WX    TMP DP  RH WIND       PRES   REMARKS
Seattle        CLEAR     41  28  60 N13       30.31S
Portland       PTCLDY    38  25  59 E21       30.35S
Boise          CLOUDY    26  20  77 CALM      30.66S
Great Falls    CLOUDY    37  12  35 SW14      30.37R
Calgary        CLEAR     41  12  30 VRB8      30.32R



USA.gov is the U.S. government's official web portal to all federal, state and local government web resources and services.